Home > Weather > Sevierville > Past weeks

Flag for USA Past Weather in Sevierville, Tennessee, USA — Yesterday and Last 2 Weeks

Now
79 °F

Mostly cloudy.


Feels Like: 82 °F
Forecast: 74 / 93 °F
Wind: 8 mph from Southwest

Location: McGhee Tyson Airport

Current Time: Jul 27, 2016 at 1:45:28 AM

Latest Report: Jul 27, 2016 at 12:53 AM


Visibility: 10 mi

Pressure: 29.99 "Hg

Humidity: 82%

Dew Point: 73 °F

Location of SeviervilleLocation

Past Weather in Sevierville — Graph

°F

Sevierville Temperature Yesterday

Maximum temperature yesterday: 96 °F (at 4:53 PM)
Minimum temperature yesterday: 76 °F (at 5:53 AM)
Average temperature yesterday: 85 °F

High & Low Weather Summary for the Past Weeks

 TemperatureHumidityPressure
High97 °F (Jul 25, 3:53 PM)96% (Jul 17, 7:01 AM)30.24 "Hg (Jul 17, 7:01 AM)
Low68 °F (Jul 17, 7:01 AM)32% (Jul 20, 6:53 PM)29.90 "Hg (Jul 23, 3:53 PM)
Average82 °F67%30.06 "Hg
* Reported Jul 12 12:53 AM — Jul 27 12:53 AM, Sevierville, Weather by CustomWeather, © 2016

Note: Actual official high and low records may vary slightly from our data, if they occured in-between our weather recording intervals... More about our weather records

Advertising

Sevierville Weather History for the Previous 24 Hours

Scroll right to see more
 ConditionsComfort  
Time TempWeatherWind HumidityBarometerVisibility
12:53 AM
Wed, Jul 27
79 °FMostly cloudy.8 mph82%29.99 "Hg10 mi
11:53 PM
Tue, Jul 26
80 °FMostly cloudy.7 mph81%30.00 "Hg10 mi
10:53 PM82 °FLight rain. Overcast.6 mph74%29.99 "Hg10 mi
9:53 PM83 °FThundershowers. Mostly cloudy.No wind68%29.97 "Hg10 mi
8:53 PM87 °FThundershowers. Broken clouds.9 mph55%29.96 "Hg10 mi
7:53 PM89 °FBroken clouds.6 mph55%29.93 "Hg10 mi
6:53 PM91 °FScattered clouds.12 mph50%29.92 "Hg10 mi
5:53 PM95 °FScattered clouds.5 mph40%29.92 "Hg10 mi
4:53 PM96 °FScattered clouds.5 mph36%29.93 "Hg10 mi
3:53 PM95 °FScattered clouds.9 mph43%29.95 "Hg10 mi
2:53 PM93 °FScattered clouds.5 mph49%29.97 "Hg10 mi
1:53 PM91 °FBroken clouds.3 mph50%29.99 "Hg10 mi
12:53 PM87 °FBroken clouds.5 mph59%30.01 "Hg10 mi
11:53 AM86 °FMostly cloudy.8 mph63%30.03 "Hg10 mi
10:53 AM84 °FCloudy.5 mph67%30.03 "Hg10 mi
9:53 AM83 °FCloudy.3 mph68%30.03 "Hg10 mi
8:53 AM81 °FPartly sunny.5 mph72%30.03 "Hg10 mi
7:53 AM79 °FPartly sunny.3 mph77%30.03 "Hg10 mi
6:53 AM77 °FPassing clouds.No wind82%30.03 "Hg10 mi
5:53 AM76 °FPassing clouds.5 mph82%30.01 "Hg10 mi
4:53 AM77 °FPassing clouds.5 mph79%30.01 "Hg10 mi
3:53 AM77 °FPassing clouds.8 mph82%29.99 "Hg10 mi
2:53 AM78 °FClear.6 mph79%29.98 "Hg10 mi
1:53 AM80 °FPassing clouds.3 mph74%29.97 "Hg10 mi
Weather by CustomWeather, © 2016

See weather overviewHow to use our weather pages